Sussex, NJ

8:51 PM EST on November 15, 2019 (GMT -0500)
Sussex

Weather History for KFWN - September, 2019

Change the Weather History Date:

Monday, September 2, 2019

  Actual Average Record
Temperature  
Mean Temperature 70 °F -  
Max Temperature 80 °F 78 °F 101 °F (1953)
Min Temperature 62 °F 53 °F 36 °F (1970)
Cooling Degree Days 6    
Growing Degree Days 20 (Base 50)    
Moisture  
Dew Point 65 °F    
Average Humidity 87    
Maximum Humidity 97    
Minimum Humidity 66    
Precipitation  
Precipitation 0.41 in - - ()
Sea Level Pressure  
Sea Level Pressure 30.05 in    
Wind  
Wind Speed 2 mph ()    
Max Wind Speed 8 mph    
Max Gust Speed -    
Visibility 6.8 miles    
Events Rain    
Averages and records for this station are not official NWS values.
T = Trace of Precipitation, MM = Missing Value Source: Averaged Metar Reports

Daily Weather History Graph

Daily Weather History Graph

Search for Another Location

Airport or City:

Astronomy

Sep. 02, 2019 Rise Set
Actual Time 6:25 AM EDT 7:29 PM EDT
Civil Twilight 5:57 AM EDT 7:58 PM EDT
Nautical Twilight 5:23 AM EDT 8:31 PM EDT
Astronomical Twilight 4:48 AM EDT 9:06 PM EDT
Moon 10:07 AM EDT (9/2) 9:47 PM EDT (9/2)
Length of Visible Light 14h 00m
Length of Day
13h 04m
Waxing Crescent, 15% of the Moon is Illuminated
Sep 2
Waxing Crescent
Sep 5
First Quarter
Sep 14
Full
Sep 21
Last Quarter
Sep 28
New

Hourly Weather History & Observations

Time (EDT) Temp. Dew Point Humidity Pressure Visibility Wind Dir Wind Speed Gust Speed Precip Events Conditions
12:53 AM 66.9 °F 61.0 °F 81% 30.20 in 10.0 mi Variable 3.5 mph - N/A   Partly Cloudy
1:53 AM 66.9 °F 60.1 °F 79% 30.19 in 10.0 mi Calm Calm - N/A   Mostly Cloudy
2:02 AM 66.9 °F 60.1 °F 79% 30.19 in 10.0 mi Calm Calm - N/A   Mostly Cloudy
2:19 AM 64.9 °F 60.1 °F 84% 30.19 in 10.0 mi Calm Calm - N/A   Scattered Clouds
2:53 AM 64.0 °F 60.1 °F 87% 30.17 in 10.0 mi Calm Calm - N/A   Scattered Clouds
3:10 AM 64.0 °F 61.0 °F 90% 30.17 in 10.0 mi Calm Calm - N/A   Mostly Cloudy
3:53 AM 64.0 °F 61.0 °F 90% 30.14 in 10.0 mi Calm Calm - N/A   Overcast
4:51 AM 62.6 °F 60.8 °F 94% 30.14 in 10.0 mi Calm Calm - N/A   Scattered Clouds
4:53 AM 63.0 °F 60.1 °F 90% 30.13 in 10.0 mi Calm Calm - N/A   Mostly Cloudy
5:53 AM 64.9 °F 61.0 °F 87% 30.12 in 10.0 mi Calm Calm - N/A   Mostly Cloudy
6:53 AM 66.9 °F 61.0 °F 81% 30.10 in 10.0 mi Variable 3.5 mph - N/A   Overcast
7:07 AM 66.9 °F 61.0 °F 81% 30.11 in 10.0 mi Calm Calm - N/A   Overcast
7:53 AM 68.0 °F 61.0 °F 78% 30.09 in 10.0 mi SSW 4.6 mph - N/A   Overcast
8:01 AM 69.1 °F 61.0 °F 75% 30.09 in 10.0 mi Variable 5.8 mph - N/A   Overcast
8:53 AM 69.1 °F 62.1 °F 78% 30.06 in 10.0 mi Variable 5.8 mph - 0.00 in Rain Light Rain
9:12 AM 68.0 °F 63.0 °F 84% 30.07 in 4.0 mi Calm Calm - 0.02 in Rain Rain
9:51 AM 68.0 °F 64.4 °F 88% 30.05 in 8.0 mi SSW 4.6 mph - 0.05 in Rain Light Rain
9:53 AM 68.0 °F 64.0 °F 87% 30.05 in 7.0 mi Calm Calm - 0.05 in Rain Light Rain
10:07 AM 68.0 °F 64.9 °F 90% 30.05 in 2.0 mi SSW 4.6 mph - 0.03 in Rain Rain
10:11 AM 68.0 °F 64.9 °F 90% 30.05 in 1.8 mi Variable 4.6 mph - 0.05 in Rain Rain
10:22 AM 68.0 °F 64.9 °F 90% 30.04 in 3.0 mi Variable 5.8 mph - 0.08 in Rain Light Rain
10:48 AM 69.8 °F 66.2 °F 88% 30.05 in 2.5 mi SW 8.1 mph - 0.10 in Rain Rain
10:53 AM 69.1 °F 66.0 °F 90% 30.04 in 2.5 mi SW 5.8 mph - 0.11 in Rain Rain
11:01 AM 69.1 °F 66.0 °F 90% 30.04 in 4.0 mi SW 3.5 mph - 0.01 in Rain Light Rain
11:10 AM 68.0 °F 66.0 °F 93% 30.05 in 1.8 mi Variable 3.5 mph - 0.05 in Rain Rain
11:15 AM 68.0 °F 66.0 °F 93% 30.04 in 0.8 mi Variable 3.5 mph - 0.10 in Rain Heavy Rain
11:22 AM 68.0 °F 66.0 °F 93% 30.04 in 1.0 mi Variable 3.5 mph - 0.13 in Rain Heavy Rain
11:28 AM 69.1 °F 66.0 °F 90% 30.05 in 2.0 mi Variable 3.5 mph - 0.14 in Rain Rain
11:41 AM 68.0 °F 66.0 °F 93% 30.05 in 1.8 mi Calm Calm - 0.18 in Rain Rain
11:53 AM 68.0 °F 66.0 °F 93% 30.04 in 2.0 mi Calm Calm - 0.21 in Rain Rain
12:04 PM 69.1 °F 66.9 °F 93% 30.04 in 1.8 mi SSW 3.5 mph - 0.02 in Rain Rain
12:12 PM 69.1 °F 66.9 °F 93% 30.04 in 2.5 mi SW 3.5 mph - 0.04 in Rain Rain
12:20 PM 69.1 °F 66.9 °F 93% 30.03 in 8.0 mi Calm Calm - 0.04 in Rain Light Rain
12:32 PM 69.1 °F 66.9 °F 93% 30.03 in 4.0 mi Calm Calm - 0.04 in Rain Light Rain
12:44 PM 70.0 °F 66.9 °F 90% 30.03 in 8.0 mi Calm Calm - 0.04 in   Overcast
12:53 PM 70.0 °F 68.0 °F 93% 30.02 in 10.0 mi Variable 3.5 mph - 0.04 in   Overcast
1:11 PM 70.0 °F 66.9 °F 90% 30.02 in 10.0 mi SSW 4.6 mph - N/A   Overcast
1:53 PM 73.0 °F 68.0 °F 84% 30.01 in 10.0 mi Variable 4.6 mph - N/A   Overcast
2:08 PM 73.0 °F 68.0 °F 84% 30.00 in 10.0 mi SSW 5.8 mph - N/A   Overcast
2:21 PM 73.0 °F 68.0 °F 84% 30.00 in 10.0 mi Variable 5.8 mph - N/A   Overcast
2:53 PM 75.0 °F 68.0 °F 79% 29.97 in 10.0 mi Variable 5.8 mph - N/A   Mostly Cloudy
3:53 PM 77.0 °F 68.0 °F 74% 29.95 in 10.0 mi SW 5.8 mph - N/A   Scattered Clouds
4:53 PM 79.0 °F 66.9 °F 66% 29.95 in 10.0 mi SSW 6.9 mph - N/A   Clear
5:53 PM 78.1 °F 66.9 °F 68% 29.94 in 10.0 mi SW 4.6 mph - N/A   Clear
6:53 PM 75.0 °F 66.9 °F 76% 29.95 in 10.0 mi Calm Calm - N/A   Clear
7:53 PM 71.1 °F 68.0 °F 90% 29.96 in 10.0 mi Calm Calm - N/A   Mostly Cloudy
8:53 PM 69.1 °F 66.9 °F 93% 29.98 in 9.0 mi Calm Calm - N/A   Mostly Cloudy
9:53 PM 68.0 °F 66.0 °F 93% 30.00 in 8.0 mi SSW 3.5 mph - N/A   Mostly Cloudy
10:53 PM 66.9 °F 64.9 °F 93% 30.01 in 6.0 mi Calm Calm - N/A   Mostly Cloudy
11:05 PM 64.9 °F 64.0 °F 97% 30.01 in 2.0 mi SSE 4.6 mph - N/A   Scattered Clouds
11:21 PM 64.9 °F 64.0 °F 97% 30.01 in 1.5 mi Calm Calm - N/A   Scattered Clouds
11:26 PM 66.0 °F 64.0 °F 93% 30.01 in 3.0 mi Calm Calm - N/A   Scattered Clouds
11:53 PM 64.9 °F 63.0 °F 93% 30.01 in 5.0 mi Calm Calm - N/A   Clear